When you browse on this site, cookies collect data to enhance your experience and personalize the content and advertising you see.
Visit our Privacy Policy to learn more. By continuing to use the site, you agree to this use of cookies and data.
  • Em Portugal
  • Lista de países
  • Para 7 dias
  • Temperatura da água
  • Mapas de satélite
  • Mapa do tempo
  • Widgets de tempo
  • user-avatar
    Iniciar Sessão

    Previsão horária em Uy-Salgan

    Hoje, 19 Junho, Quarta-feira

    Tempo Temperatura Precipitação Vento Pressão Humidade
    00:00 +26°C° 0 mm 3 m/s 749 mmHg 43%
    01:00 +25°C° 0 mm 2 m/s 749 mmHg 47%
    02:00 +24°C° 0 mm 2 m/s 749 mmHg 50%
    03:00 +24°C° 0 mm 1 m/s 749 mmHg 56%
    04:00 +24°C° 0 mm 1 m/s 750 mmHg 56%
    05:00 +25°C° 0 mm 1 m/s 750 mmHg 55%
    06:00 +25°C° 0 mm 1 m/s 750 mmHg 55%
    07:00 +27°C° 0 mm 2 m/s 750 mmHg 49%
    08:00 +29°C° 0 mm 2 m/s 750 mmHg 44%
    09:00 +31°C° 0 mm 2 m/s 750 mmHg 38%
    10:00 +32°C° 0 mm 2 m/s 749 mmHg 34%
    11:00 +35°C° 0 mm 3 m/s 749 mmHg 29%
    12:00 +36°C° 0 mm 3 m/s 749 mmHg 24%
    13:00 +36°C° 0 mm 3 m/s 749 mmHg 23%
    14:00 +37°C° 0 mm 3 m/s 749 mmHg 21%
    15:00 +37°C° 0 mm 3 m/s 749 mmHg 20%
    16:00 +37°C° 0 mm 3 m/s 749 mmHg 22%
    17:00 +36°C° 0 mm 4 m/s 749 mmHg 24%
    18:00 +35°C° 0 mm 5 m/s 749 mmHg 26%
    19:00 +34°C° 0 mm 5 m/s 749 mmHg 27%
    20:00 +32°C° 0 mm 5 m/s 749 mmHg 28%
    21:00 +29°C° 0 mm 4 m/s 750 mmHg 29%
    22:00 +28°C° 0 mm 4 m/s 749 mmHg 32%
    23:00 +27°C° 0 mm 3 m/s 749 mmHg 34%

    Amanhã, 20 Junho, Quinta-feira

    Tempo Temperatura Precipitação Vento Pressão Humidade
    00:00 +26°C° 0 mm 3 m/s 749 mmHg 37%
    01:00 +25°C° 0 mm 2 m/s 749 mmHg 38%
    02:00 +25°C° 0 mm 2 m/s 749 mmHg 40%
    03:00 +24°C° 0 mm 2 m/s 749 mmHg 42%
    04:00 +25°C° 0 mm 2 m/s 749 mmHg 42%
    05:00 +25°C° 0 mm 2 m/s 749 mmHg 42%
    06:00 +26°C° 0 mm 2 m/s 750 mmHg 42%
    07:00 +28°C° 0 mm 2 m/s 750 mmHg 37%
    08:00 +30°C° 0 mm 3 m/s 750 mmHg 32%
    09:00 +32°C° 0 mm 4 m/s 750 mmHg 27%
    10:00 +34°C° 0 mm 4 m/s 749 mmHg 25%
    11:00 +35°C° 0 mm 4 m/s 749 mmHg 23%
    12:00 +36°C° 0 mm 5 m/s 749 mmHg 21%
    13:00 +37°C° 0 mm 5 m/s 749 mmHg 20%
    14:00 +37°C° 0 mm 5 m/s 749 mmHg 19%
    15:00 +39°C° 0 mm 6 m/s 749 mmHg 17%
    16:00 +38°C° 0 mm 6 m/s 749 mmHg 20%
    17:00 +36°C° 0 mm 6 m/s 749 mmHg 23%
    18:00 +34°C° 0 mm 6 m/s 749 mmHg 26%
    19:00 +33°C° 0 mm 5 m/s 750 mmHg 31%
    20:00 +30°C° 0 mm 5 m/s 750 mmHg 37%
    21:00 +28°C° 0 mm 4 m/s 750 mmHg 43%
    22:00 +27°C° 0 mm 3 m/s 750 mmHg 48%
    23:00 +26°C° 0 mm 3 m/s 750 mmHg 53%

    Depois de amanhã, 21 Junho, Sexta-feira

    Tempo Temperatura Precipitação Vento Pressão Humidade
    00:00 +25°C° 0 mm 2 m/s 750 mmHg 57%
    01:00 +25°C° 0 mm 2 m/s 750 mmHg 57%
    02:00 +25°C° 0 mm 2 m/s 750 mmHg 56%
    03:00 +25°C° 0 mm 2 m/s 750 mmHg 56%
    04:00 +25°C° 0 mm 2 m/s 750 mmHg 55%
    05:00 +25°C° 0 mm 2 m/s 750 mmHg 55%
    06:00 +25°C° 0 mm 2 m/s 751 mmHg 54%
    07:00 +26°C° 0 mm 2 m/s 751 mmHg 52%
    08:00 +27°C° 0 mm 2 m/s 751 mmHg 49%
    09:00 +27°C° 0 mm 1 m/s 751 mmHg 47%
    10:00 +28°C° 0 mm 1 m/s 751 mmHg 45%
    11:00 +29°C° 0 mm 1 m/s 751 mmHg 42%
    12:00 +29°C° 0 mm 1 m/s 752 mmHg 40%
    13:00 +30°C° 0 mm 1 m/s 751 mmHg 40%
    14:00 +30°C° 0 mm 2 m/s 751 mmHg 40%
    15:00 +30°C° 0 mm 2 m/s 751 mmHg 40%
    16:00 +30°C° 0 mm 2 m/s 751 mmHg 42%
    17:00 +29°C° 0 mm 1 m/s 751 mmHg 44%
    18:00 +29°C° 0 mm 1 m/s 751 mmHg 46%
    19:00 +28°C° 0 mm 1 m/s 752 mmHg 48%
    20:00 +27°C° 0 mm 1 m/s 752 mmHg 50%
    21:00 +26°C° 0 mm 1 m/s 752 mmHg 53%
    22:00 +25°C° 0 mm 1 m/s 752 mmHg 54%
    23:00 +25°C° 0 mm 1 m/s 752 mmHg 56%

    22 Junho, Sábado

    Tempo Temperatura Precipitação Vento Pressão Humidade
    00:00 +24°C° 0 mm 2 m/s 752 mmHg 57%
    01:00 +24°C° 0 mm 2 m/s 752 mmHg 58%
    02:00 +24°C° 0 mm 2 m/s 752 mmHg 59%
    03:00 +23°C° 0 mm 2 m/s 751 mmHg 59%
    04:00 +24°C° 0 mm 2 m/s 752 mmHg 58%
    05:00 +25°C° 0 mm 2 m/s 752 mmHg 56%
    06:00 +26°C° 0 mm 2 m/s 752 mmHg 55%
    07:00 +28°C° 0 mm 3 m/s 752 mmHg 48%
    08:00 +30°C° 0 mm 3 m/s 752 mmHg 41%
    09:00 +33°C° 0 mm 4 m/s 752 mmHg 34%
    10:00 +34°C° 0 mm 5 m/s 752 mmHg 31%
    11:00 +36°C° 0 mm 5 m/s 752 mmHg 27%
    12:00 +37°C° 0 mm 5 m/s 751 mmHg 24%
    13:00 +37°C° 0 mm 4 m/s 751 mmHg 22%
    14:00 +39°C° 0 mm 5 m/s 751 mmHg 22%
    15:00 +39°C° 0 mm 6 m/s 751 mmHg 21%
    16:00 +38°C° 0 mm 6 m/s 751 mmHg 24%
    17:00 +36°C° 0 mm 7 m/s 751 mmHg 27%
    18:00 +35°C° 0 mm 8 m/s 751 mmHg 30%
    19:00 +34°C° 0 mm 7 m/s 751 mmHg 33%
    20:00 +32°C° 0 mm 7 m/s 752 mmHg 37%
    21:00 +30°C° 0 mm 6 m/s 752 mmHg 41%
    22:00 +29°C° 0 mm 5 m/s 752 mmHg 44%
    23:00 +28°C° 0 mm 4 m/s 752 mmHg 47%

    23 Junho, Domingo

    Tempo Temperatura Precipitação Vento Pressão Humidade
    00:00 +27°C° 0 mm 3 m/s 751 mmHg 50%
    01:00 +26°C° 0 mm 3 m/s 752 mmHg 53%
    02:00 +26°C° 0 mm 3 m/s 752 mmHg 56%
    03:00 +25°C° 0 mm 3 m/s 752 mmHg 60%
    04:00 +26°C° 0 mm 3 m/s 752 mmHg 60%
    05:00 +26°C° 0 mm 3 m/s 752 mmHg 60%
    06:00 +27°C° 0 mm 4 m/s 752 mmHg 61%
    07:00 +29°C° 0 mm 4 m/s 752 mmHg 53%
    08:00 +32°C° 0 mm 4 m/s 752 mmHg 45%
    09:00 +34°C° 0 mm 5 m/s 752 mmHg 37%
    10:00 +35°C° 0 mm 5 m/s 752 mmHg 32%
    11:00 +37°C° 0 mm 5 m/s 752 mmHg 28%
    12:00 +39°C° 0 mm 5 m/s 752 mmHg 24%
    13:00 +39°C° 0 mm 6 m/s 751 mmHg 23%
    14:00 +39°C° 0 mm 7 m/s 751 mmHg 23%
    15:00 +40°C° 0 mm 7 m/s 751 mmHg 23%
    16:00 +38°C° 0 mm 7 m/s 751 mmHg 26%
    17:00 +36°C° 0 mm 7 m/s 751 mmHg 29%
    18:00 +35°C° 0 mm 7 m/s 751 mmHg 32%
    19:00 +34°C° 0 mm 6 m/s 751 mmHg 35%
    20:00 +32°C° 0 mm 5 m/s 751 mmHg 39%
    21:00 +30°C° 0 mm 4 m/s 751 mmHg 42%
    22:00 +29°C° 0 mm 4 m/s 751 mmHg 44%
    23:00 +29°C° 0 mm 3 m/s 751 mmHg 46%

    24 Junho, Segunda-feira

    Tempo Temperatura Precipitação Vento Pressão Humidade
    00:00 +28°C° 0 mm 3 m/s 751 mmHg 49%
    01:00 +27°C° 0 mm 3 m/s 751 mmHg 50%
    02:00 +27°C° 0 mm 2 m/s 751 mmHg 51%
    03:00 +26°C° 0 mm 2 m/s 751 mmHg 52%
    04:00 +27°C° 0 mm 2 m/s 751 mmHg 53%
    05:00 +27°C° 0 mm 2 m/s 751 mmHg 53%
    06:00 +27°C° 0 mm 2 m/s 751 mmHg 54%
    07:00 +27°C° 0 mm 2 m/s 751 mmHg 52%
    08:00 +28°C° 0 mm 2 m/s 751 mmHg 51%
    09:00 +28°C° 0 mm 2 m/s 751 mmHg 49%
    10:00 +29°C° 0 mm 2 m/s 751 mmHg 47%
    11:00 +30°C° 0 mm 2 m/s 751 mmHg 45%
    12:00 +31°C° 0 mm 2 m/s 751 mmHg 43%
    13:00 +31°C° 0 mm 2 m/s 751 mmHg 42%
    14:00 +31°C° 0 mm 2 m/s 751 mmHg 40%
    15:00 +32°C° 0 mm 2 m/s 751 mmHg 38%
    16:00 +32°C° 0 mm 2 m/s 751 mmHg 39%
    17:00 +31°C° 0 mm 2 m/s 751 mmHg 40%
    18:00 +31°C° 0 mm 2 m/s 751 mmHg 41%
    19:00 +30°C° 0 mm 2 m/s 751 mmHg 43%
    20:00 +29°C° 0 mm 2 m/s 751 mmHg 44%
    21:00 +28°C° 0 mm 2 m/s 751 mmHg 45%
    22:00 +27°C° 0 mm 2 m/s 751 mmHg 47%
    23:00 +26°C° 0 mm 2 m/s 751 mmHg 48%
    Mostrar mais